Location: Zapote
(9.9191°N, 84.0597°W)
Time: 17:26:44
(UTC-06:00)

Transit 2A - Pass Details

Date: 06 March 2021
Orbit: 602 x 957 km, 66.7° (Epoch: 16 April)

Event Time Altitude Azimuth Distance (km) Brightness Sun altitude
Rises 15:05:26 0° 173° (S) 3,558 9.5 38.4°
Reaches altitude 10° 15:08:36 10° 159° (SSE) 2,571 8.8 37.6°
Maximum altitude 15:13:04 22° 110° (ESE) 1,787 7.7 36.6°
Drops below altitude 10° 15:17:17 10° 60° (ENE) 2,404 8.2 35.6°
Sets 15:20:06 0° 46° (NE) 3,268 8.8 34.9°
